SA3PJN-WX Weather Reports


time (UTC)temp
F
wind
direction
speed
knots
gust
knots
rain 1hr
in
rain 24hr
in
rain mn
in
humidity
%
barometer
mb
20260903053531 49 107 2.6 10.4 0.00 0.00 0.00 95 957.4
20260903053031 48 104 2.6 10.4 0.00 0.00 0.00 94 957.4
20260903052531 48 135 2.6 10.4 0.00 0.00 0.00 93 957.4
20260903052031 48 109 2.6 11.3 0.00 0.00 0.00 92 957.2
20260903051530 48 114 2.6 11.3 0.00 0.00 0.00 90 957.2
20260903051030 50 132 2.6 11.3 0.00 0.00 0.00 88 957.2
20260903050530 52 104 1.7 7.0 0.00 0.00 0.00 87 957.4
20260903050030 51 119 1.7 6.1 0.00 0.00 0.00 89 957.6
20260903045530 48 127 1.7 6.1 0.00 0.00 0.00 93 957.5
20260903045030 49 113 1.7 7.0 0.00 0.00 0.00 92 957.4
20260903044530 49 123 1.7 7.0 0.00 0.00 0.00 92 957.4
20260903044030 48 155 1.7 8.7 0.00 0.00 0.00 96 957.3
20260903043530 48 95 1.7 8.7 0.00 0.00 0.00 97 957.4
20260903043030 46 112 2.6 7.0 0.00 0.00 0.00 99 957.4
20260903042530 45 223 2.6 7.0 0.00 0.00 0.00 99 957.2
20260903042030 45 139 1.7 6.1 0.00 0.00 0.00 98 957.2
20260903041530 44 38 1.7 6.1 0.00 0.00 0.00 98 957.3
20260903041029 44 71 1.7 7.0 0.00 0.00 0.00 99 957.2
20260903040529 44 154 1.7 7.0 0.00 0.00 0.00 99 957.2
20260903040029 44 93 1.7 7.0 0.00 0.00 0.00 99 957.1
20260903035529 44 104 1.7 7.0 0.00 0.00 0.00 10 957.1
20260903035029 44 44 2.6 9.6 0.00 0.00 0.00 10 957.1
20260903034529 44 64 2.6 9.6 0.00 0.00 0.00 10 957.1
20260903034029 44 47 2.6 9.6 0.00 0.00 0.00 10 957.1
20260903033529 44 53 2.6 9.6 0.00 0.00 0.00 10 957.1
20260903033029 44 43 2.6 12.2 0.00 0.00 0.00 10 957.1
20260903032529 44 128 2.6 12.2 0.00 0.00 0.00 10 957.0
20260903032029 44 154 2.6 9.6 0.00 0.00 0.00 10 957.2
20260903031529 44 93 1.7 9.6 0.00 0.00 0.00 99 957.2
20260903031029 44 74 1.7 7.0 0.00 0.00 0.00 99 957.2
20260903030529 44 205 1.7 6.1 0.00 0.00 0.00 99 957.2
20260903030029 44 119 1.7 5.2 0.00 0.00 0.00 10 957.1
20260903025528 44 59 1.7 7.8 0.00 0.00 0.00 10 957.1
20260903025028 44 89 1.7 7.8 0.00 0.00 0.00 99 957.1
20260903024528 44 88 2.6 7.0 0.00 0.00 0.00 99 957.1
20260903024028 44 142 2.6 7.8 0.00 0.00 0.00 99 957.1
20260903023528 44 46 2.6 7.8 0.00 0.00 0.00 99 957.1
20260903023028 44 135 2.6 12.2 0.00 0.00 0.00 99 957.3
20260903022528 44 63 2.6 12.2 0.00 0.00 0.00 99 957.3
20260903022028 45 68 2.6 7.0 0.00 0.00 0.00 99 957.2
20260903021528 45 82 2.6 7.8 0.00 0.00 0.00 98 957.2
20260903021028 45 359 2.6 7.8 0.00 0.00 0.00 99 957.3
20260903020528 45 132 2.6 6.1 0.00 0.00 0.00 98 957.3
20260903020028 45 2 1.7 6.1 0.00 0.00 0.00 98 957.3
20260903015528 44 26 1.7 5.2 0.00 0.00 0.00 98 957.3
20260903015028 44 156 1.7 7.0 0.00 0.00 0.00 98 957.2
20260903014528 45 85 1.7 7.0 0.00 0.00 0.00 98 957.3
20260903014028 45 62 1.7 7.0 0.00 0.00 0.00 98 957.3
20260903013527 45 46 1.7 7.0 0.00 0.00 0.00 98 957.3
20260903013027 45 71 1.7 6.1 0.00 0.00 0.00 98 957.3
20260903012527 45 107 1.7 7.0 0.00 0.00 0.00 98 957.2
20260903012027 45 34 1.7 7.0 0.00 0.00 0.00 98 957.2
20260903011527 45 151 1.7 7.0 0.00 0.00 0.00 98 957.2
20260903011027 45 17 1.7 10.4 0.00 0.00 0.00 98 957.2
20260903010527 45 143 1.7 10.4 0.00 0.00 0.00 98 957.2
20260903010027 45 123 2.6 7.0 0.00 0.00 0.00 98 957.3
20260903005527 45 111 1.7 7.8 0.00 0.00 0.00 98 957.2
20260903005027 45 67 1.7 7.8 0.00 0.00 0.00 98 957.1
20260903004527 45 132 1.7 7.8 0.00 0.00 0.00 98 957.2
20260903004027 45 4 1.7 5.2 0.00 0.00 0.00 98 957.2
20260903003527 45 47 1.7 8.7 0.00 0.00 0.00 98 957.2
20260903003027 45 87 1.7 8.7 0.00 0.00 0.00 98 957.1
20260903002527 45 62 1.7 7.8 0.00 0.00 0.00 98 957.3
20260903002027 45 154 1.7 7.0 0.00 0.00 0.00 98 957.2
20260903001527 45 114 1.7 7.0 0.00 0.00 0.00 98 957.0
20260903001026 45 86 1.7 5.2 0.00 0.00 0.00 98 957.0
20260903000526 45 53 1.7 5.2 0.00 0.00 0.00 98 957.0
20260903000026 45 83 1.7 4.3 0.00 0.00 0.00 98 957.1
20260902235526 45 137 1.7 5.2 0.00 0.00 0.00 98 957.2
20260902235026 45 57 1.7 5.2 0.00 0.00 0.00 98 957.0
20260902234526 46 114 1.7 6.1 0.00 0.00 0.00 98 957.0
20260902234026 46 89 1.7 7.8 0.00 0.00 0.00 98 957.0
20260902233526 46 103 2.6 7.8 0.00 0.00 0.00 98 957.1
20260902233026 46 89 2.6 8.7 0.00 0.00 0.00 98 957.0
20260902232526 46 77 2.6 8.7 0.00 0.00 0.00 98 957.0
20260902232026 46 111 2.6 7.8 0.00 0.00 0.00 97 957.0
20260902231526 46 122 2.6 7.8 0.00 0.00 0.00 97 957.1
20260902231025 46 182 2.6 7.8 0.00 0.00 0.00 97 957.1
20260902230526 46 226 2.6 7.0 0.00 0.00 0.00 97 957.1
20260902230025 47 264 2.6 7.8 0.00 0.00 0.00 97 957.1
20260902225525 47 68 1.7 7.8 0.00 0.00 0.00 97 957.1
20260902225025 47 282 2.6 9.6 0.00 0.00 0.00 96 957.2
20260902224525 47 73 2.6 9.6 0.00 0.00 0.00 96 957.2
20260902224025 47 124 2.6 8.7 0.00 0.00 0.00 95 957.1
20260902223525 47 108 2.6 7.8 0.00 0.00 0.00 95 957.1
20260902223025 47 111 2.6 12.2 0.00 0.00 0.00 95 957.0
20260902222525 48 92 3.5 12.2 0.00 0.00 0.00 95 957.2
20260902222025 48 117 3.5 9.6 0.00 0.00 0.00 95 957.0
20260902221525 48 199 2.6 8.7 0.00 0.00 0.00 95 957.0
20260902221025 48 215 2.6 7.0 0.00 0.00 0.00 95 957.0
20260902220525 48 127 2.6 7.0 0.00 0.00 0.00 95 957.0
20260902220025 49 200 2.6 7.0 0.00 0.00 0.00 96 956.9
20260902215525 49 184 1.7 7.0 0.00 0.00 0.00 96 956.9
20260902215025 49 241 1.7 7.0 0.00 0.00 0.00 96 956.9
20260902214524 49 251 2.6 6.1 0.00 0.00 0.00 96 956.9
20260902214024 49 212 3.5 7.8 0.00 0.00 0.00 96 956.9
20260902213524 49 233 2.6 7.8 0.00 0.00 0.00 96 956.9
20260902213024 49 230 2.6 7.8 0.00 0.00 0.00 96 957.0
20260902212524 48 119 1.7 7.8 0.00 0.00 0.00 98 956.9
20260902212024 48 19 0.9 4.3 0.00 0.00 0.00 99 956.9
20260902211524 48 136 0.9 2.6 0.00 0.00 0.00 99 956.9
20260902211024 48 214 0.9 3.5 0.00 0.00 0.00 98 957.1
20260902210524 48 152 0.9 3.5 0.00 0.00 0.00 98 957.0
20260902210024 48 120 0.0 1.7 0.00 0.00 0.00 98 956.9
20260902205524 48 264 0.0 1.7 0.00 0.00 0.00 97 956.9
20260902205024 48 255 0.0 1.7 0.00 0.00 0.00 97 956.9
20260902204524 48 39 0.9 1.7 0.00 0.00 0.00 97 957.0
20260902204024 48 310 0.9 1.7 0.00 0.00 0.00 96 956.9
20260902203524 48 297 0.0 1.7 0.00 0.00 0.00 95 957.0
20260902203024 49 278 0.0 1.7 0.00 0.00 0.00 93 957.1
20260902202523 49 126 0.0 1.7 0.00 0.00 0.00 92 957.1
20260902202023 49 347 0.0 1.7 0.00 0.00 0.00 91 957.0
20260902201523 50 60 0.9 4.3 0.00 0.00 0.00 90 957.2
20260902201023 50 52 1.7 6.1 0.00 0.00 0.00 89 957.1
20260902200523 50 156 2.6 6.1 0.00 0.00 0.00 89 957.1
20260902200023 51 228 3.5 6.1 0.00 0.00 0.00 89 957.2
20260902195523 51 229 3.5 6.1 0.00 0.00 0.00 89 957.2
20260902195023 51 236 3.5 6.1 0.00 0.00 0.00 89 957.2
20260902194523 51 238 3.5 7.0 0.00 0.00 0.00 89 957.2
20260902194023 51 229 3.5 7.0 0.00 0.00 0.00 89 957.2
20260902193523 51 234 3.5 7.0 0.00 0.00 0.00 90 957.2
20260902193023 51 224 4.3 7.8 0.00 0.00 0.00 90 957.2
20260902192523 51 228 4.3 7.8 0.00 0.00 0.00 92 957.2
20260902192023 50 234 2.6 6.1 0.00 0.00 0.00 94 957.2
20260902191523 50 228 1.7 6.1 0.00 0.00 0.00 98 957.2
20260902191023 49 186 1.7 5.2 0.00 0.00 0.00 98 957.2
20260902190523 49 69 1.7 4.3 0.00 0.00 0.00 97 957.2
20260902190022 49 52 1.7 4.3 0.00 0.00 0.00 97 957.1
20260902185522 50 174 1.7 3.5 0.00 0.00 0.00 95 957.0
20260902185022 50 78 1.7 3.5 0.00 0.00 0.00 95 956.8
20260902184522 50 71 0.9 3.5 0.00 0.00 0.00 95 956.6
20260902184022 50 19 0.9 1.7 0.00 0.00 0.00 95 956.8
20260902183522 51 355 0.9 3.5 0.00 0.00 0.00 94 956.8
20260902183022 51 336 1.7 3.5 0.00 0.00 0.00 94 956.9
20260902182522 51 288 1.7 5.2 0.00 0.00 0.00 93 956.8
20260902182022 51 311 1.7 6.1 0.00 0.00 0.00 92 956.7
20260902181522 52 249 2.6 7.8 0.00 0.00 0.00 91 956.9
20260902181022 52 234 3.5 11.3 0.00 0.00 0.00 91 956.8
20260902180522 52 241 4.3 11.3 0.00 0.00 0.00 92 956.8
20260902180022 52 236 4.3 11.3 0.00 0.00 0.00 93 956.7
20260902175522 53 209 4.3 10.4 0.00 0.00 0.00 93 956.7
20260902175022 53 236 3.5 9.6 0.00 0.00 0.00 91 956.7
20260902174521 53 242 3.5 8.7 0.00 0.00 0.00 91 956.5
20260902174021 53 268 3.5 7.0 0.00 0.00 0.00 93 956.4
20260902173521 53 285 3.5 7.8 0.00 0.00 0.00 92 956.4
20260902173021 53 297 3.5 8.7 0.00 0.00 0.00 91 956.4
20260902172521 53 264 3.5 8.7 0.00 0.00 0.00 90 956.4
20260902172021 54 265 4.3 9.6 0.00 0.00 0.00 90 956.4
20260902171521 54 284 4.3 9.6 0.00 0.00 0.00 89 956.5
20260902171021 55 286 4.3 10.4 0.00 0.00 0.00 88 956.5
20260902170521 55 269 4.3 10.4 0.00 0.00 0.00 87 956.5
20260902170021 56 246 3.5 9.6 0.00 0.00 0.00 88 956.5
20260902165521 56 255 3.5 9.6 0.00 0.00 0.00 87 956.2
20260902165021 56 216 3.5 8.7 0.00 0.00 0.00 87 956.3
20260902164521 57 273 2.6 7.8 0.00 0.00 0.00 85 956.4
20260902164021 58 250 1.7 7.8 0.00 0.00 0.00 84 956.5
20260902163521 58 128 1.7 5.2 0.00 0.00 0.00 83 956.5
20260902163021 58 228 2.6 5.2 0.00 0.00 0.00 82 956.4
20260902162520 59 297 2.6 6.1 0.00 0.00 0.00 80 956.3
20260902162020 59 304 2.6 7.8 0.00 0.00 0.00 78 956.3
20260902161520 60 269 2.6 7.8 0.00 0.00 0.00 74 956.3
20260902161020 60 249 1.7 5.2 0.00 0.00 0.00 75 956.3
20260902160520 60 233 2.6 9.6 0.00 0.00 0.00 74 956.1
20260902160020 60 160 4.3 13.0 0.00 0.00 0.00 74 956.1
20260902155520 60 113 6.1 14.8 0.00 0.00 0.00 75 956.0
20260902155020 60 114 7.8 15.6 0.00 0.00 0.00 75 955.9
20260902154520 60 106 7.8 15.6 0.00 0.00 0.00 72 955.9
20260902154020 61 109 7.8 14.8 0.00 0.00 0.00 70 956.0
20260902153520 60 96 7.8 13.9 0.00 0.00 0.00 75 956.0
20260902153020 60 97 7.8 13.0 0.00 0.00 0.00 73 956.0
20260902152520 60 105 6.1 13.0 0.00 0.00 0.00 74 956.0
20260902152020 61 91 5.2 11.3 0.00 0.00 0.00 74 956.1
20260902151519 60 109 6.1 11.3 0.00 0.00 0.00 74 956.0
20260902151019 60 90 5.2 11.3 0.00 0.00 0.00 75 956.0
20260902150519 61 85 5.2 11.3 0.00 0.00 0.00 77 955.9
20260902150019 60 65 4.3 8.7 0.00 0.00 0.00 78 955.8
20260902145519 61 100 4.3 7.8 0.00 0.00 0.00 75 955.9
20260902145019 61 77 2.6 9.6 0.00 0.00 0.00 73 956.1
20260902144519 62 176 2.6 9.6 0.00 0.00 0.00 66 956.1
20260902144019 62 54 2.6 8.7 0.00 0.00 0.00 75 956.5
20260902143519 61 212 3.5 8.7 0.00 0.00 0.00 75 956.4
20260902143019 62 245 3.5 8.7 0.00 0.00 0.00 73 956.4
20260902142519 62 232 2.6 9.6 0.00 0.00 0.00 71 956.4
20260902142019 63 260 4.3 13.0 0.00 0.00 0.00 70 956.5
20260902141519 63 175 7.0 14.8 0.00 0.00 0.00 70 956.4
20260902141019 64 104 7.0 14.8 0.00 0.00 0.00 69 956.4
20260902140519 64 100 7.0 13.9 0.00 0.00 0.00 68 956.5
20260902140018 64 226 6.1 13.9 0.00 0.00 0.00 68 956.5
20260902135518 65 97 4.3 13.9 0.00 0.00 0.00 66 956.5
20260902135018 64 118 4.3 12.2 0.00 0.00 0.00 68 956.6
20260902134518 64 146 7.0 13.0 0.00 0.00 0.00 68 956.6
20260902134018 64 109 7.0 13.0 0.00 0.00 0.00 66 956.7
20260902133518 65 108 7.0 12.2 0.00 0.00 0.00 64 956.5
20260902133018 65 75 6.1 12.2 0.00 0.00 0.00 65 956.6
20260902132518 64 115 5.2 12.2 0.00 0.00 0.00 67 956.5
20260902132018 64 74 5.2 10.4 0.00 0.00 0.00 70 956.7
20260902131518 62 104 6.1 10.4 0.00 0.00 0.00 71 956.7
20260902131018 62 112 6.1 11.3 0.00 0.00 0.00 70 956.8
20260902130518 64 107 6.1 11.3 0.00 0.00 0.00 67 956.9
20260902130018 65 86 5.2 10.4 0.00 0.00 0.00 68 957.0
20260902125518 64 113 5.2 10.4 0.00 0.00 0.00 66 957.0
20260902125017 64 107 5.2 11.3 0.00 0.00 0.00 65 956.9
20260902124517 65 95 6.1 13.0 0.00 0.00 0.00 70 957.0
20260902124017 63 134 6.1 13.0 0.00 0.00 0.00 71 957.1
20260902123517 64 66 7.0 13.0 0.00 0.00 0.00 67 957.1
20260902123017 64 109 7.0 13.0 0.00 0.00 0.00 68 957.1
20260902122517 65 164 7.0 13.0 0.00 0.00 0.00 68 957.2
20260902122017 64 87 7.0 13.9 0.00 0.00 0.00 70 957.3
20260902121517 64 114 6.1 13.9 0.00 0.00 0.00 68 957.3
20260902121017 65 111 5.2 12.2 0.00 0.00 0.00 71 957.4
20260902120517 65 105 5.2 13.0 0.00 0.00 0.00 71 957.4
20260902120017 63 98 5.2 13.0 0.00 0.00 0.00 71 957.5
20260902115517 64 115 3.5 9.6 0.00 0.00 0.00 71 957.4
20260902115017 65 152 2.6 8.7 0.00 0.00 0.00 73 957.5
20260902114517 65 217 1.7 8.7 0.00 0.00 0.00 75 957.6
20260902114016 64 82 3.5 13.0 0.00 0.00 0.00 76 957.5
20260902113516 62 239 5.2 13.0 0.00 0.00 0.00 78 957.5
20260902113016 62 99 5.2 12.2 0.00 0.00 0.00 77 957.6
20260902112516 62 67 5.2 8.7 0.00 0.00 0.00 77 957.6
20260902112016 62 83 5.2 10.4 0.00 0.00 0.00 78 957.6
20260902111516 61 91 5.2 10.4 0.00 0.00 0.00 77 957.6
20260902111016 61 87 4.3 9.6 0.00 0.00 0.00 77 957.7
20260902110516 62 114 3.5 7.8 0.00 0.00 0.00 77 957.8
20260902110016 62 110 2.6 7.8 0.00 0.00 0.00 76 957.8
20260902105516 61 104 3.5 7.8 0.00 0.00 0.00 79 957.8
20260902105016 61 120 4.3 7.8 0.00 0.00 0.00 78 957.8
20260902104516 62 76 2.6 7.0 0.00 0.00 0.00 73 957.7
20260902104016 64 67 3.5 8.7 0.00 0.00 0.00 76 957.9
20260902103516 62 82 4.3 8.7 0.00 0.00 0.00 76 957.8
20260902103016 63 98 4.3 8.7 0.00 0.00 0.00 73 957.9
20260902102516 63 71 3.5 7.8 0.00 0.00 0.00 75 957.8
20260902102015 64 112 3.5 9.6 0.00 0.00 0.00 74 957.8
20260902101515 64 283 3.5 9.6 0.00 0.00 0.00 77 958.0
20260902101015 64 129 3.5 9.6 0.00 0.00 0.00 77 957.9
20260902100515 62 97 2.6 8.7 0.00 0.00 0.00 76 957.9
20260902100015 64 76 1.7 8.7 0.00 0.00 0.00 74 958.0
20260902095515 63 38 1.7 6.1 0.00 0.00 0.00 78 958.0
20260902095015 62 286 2.6 6.1 0.00 0.00 0.00 80 958.0
20260902094515 61 113 2.6 7.0 0.00 0.00 0.00 77 957.9
20260902094015 61 98 2.6 7.0 0.00 0.00 0.00 77 958.0
20260902093515 64 222 1.7 7.8 0.00 0.00 0.00 75 958.3
20260902093015 65 76 2.6 9.6 0.00 0.00 0.00 74 958.2
20260902092515 66 147 2.6 9.6 0.00 0.00 0.00 76 958.4
20260902092015 65 315 2.6 7.8 0.00 0.00 0.00 81 958.2
20260902091515 62 128 3.5 7.8 0.00 0.00 0.00 86 958.3
20260902091015 59 110 4.3 9.6 0.00 0.00 0.00 87 958.2
20260902090514 58 112 4.3 9.6 0.00 0.00 0.00 88 958.1
20260902090014 59 113 3.5 8.7 0.00 0.00 0.00 86 958.1
20260902085514 59 114 2.6 7.8 0.00 0.00 0.00 87 958.3
20260902085014 58 76 4.3 8.7 0.00 0.00 0.00 86 958.1
20260902084514 57 242 4.3 8.7 0.00 0.00 0.00 92 958.2
20260902084014 57 71 5.2 9.6 0.00 0.00 0.00 88 958.0
20260902083514 57 82 5.2 9.6 0.00 0.00 0.00 88 958.2
20260902083014 57 60 4.3 9.6 0.00 0.00 0.00 87 957.8
20260902082514 56 111 4.3 7.8 0.00 0.00 0.00 89 957.9
20260902082014 55 72 4.3 7.8 0.00 0.00 0.00 92 957.9
20260902081514 56 94 4.3 7.8 0.00 0.00 0.00 91 957.9
20260902081014 55 76 4.3 7.8 0.00 0.00 0.00 93 957.9
20260902080514 55 5 5.2 8.7 0.00 0.00 0.00 93 957.9
20260902080014 55 52 4.3 8.7 0.00 0.00 0.00 92 958.0
20260902075514 56 66 3.5 7.8 0.00 0.00 0.00 89 957.9
20260902075014 57 121 2.6 6.1 0.00 0.00 0.00 91 958.3
20260902074513 55 102 3.5 6.1 0.00 0.00 0.00 94 958.3
20260902074013 54 112 3.5 6.1 0.00 0.00 0.00 95 958.4
20260902073513 54 105 3.5 6.1 0.00 0.00 0.00 95 958.3
20260902073013 54 126 3.5 7.0 0.00 0.00 0.00 96 958.3
20260902072513 53 91 4.3 7.8 0.00 0.00 0.00 98 958.3
20260902072013 52 120 4.3 7.8 0.00 0.00 0.00 98 958.3
20260902071513 51 82 4.3 7.0 0.00 0.00 0.00 98 958.2
20260902071013 51 63 3.5 7.0 0.00 0.00 0.00 98 958.2
20260902070513 51 64 2.6 7.0 0.00 0.00 0.00 98 958.2
20260902070013 51 28 3.5 7.0 0.00 0.00 0.00 98 958.2
20260902065513 50 75 4.3 7.0 0.00 0.00 0.00 98 958.3
20260902065013 50 65 4.3 7.0 0.00 0.00 0.00 98 958.2
20260902064513 50 82 4.3 7.0 0.00 0.00 0.00 98 958.4
20260902064013 50 58 4.3 7.0 0.00 0.00 0.00 98 958.4
20260902063513 50 59 5.2 7.0 0.00 0.00 0.00 99 958.5
20260902063013 49 72 5.2 8.7 0.00 0.00 0.00 99 958.4
20260902062512 49 81 5.2 8.7 0.00 0.00 0.00 99 958.4
20260902062012 49 79 5.2 7.8 0.00 0.00 0.00 99 958.4
20260902061512 49 68 4.3 7.8 0.00 0.00 0.00 99 958.5
20260902061012 48 72 4.3 7.0 0.00 0.00 0.00 99 958.4
20260902060512 48 65 4.3 7.0 0.00 0.00 0.00 99 958.3
20260902060012 48 64 4.3 7.0 0.00 0.00 0.00 99 958.5
20260902055512 48 13 3.5 7.0 0.00 0.00 0.00 98 958.5
20260902055012 48 60 2.6 7.0 0.00 0.00 0.00 98 958.5
20260902054512 48 29 3.5 10.4 0.00 0.00 0.00 98 958.4
20260902054012 48 53 4.3 10.4 0.00 0.00 0.00 98 958.5